DW6399 Weather Reports


time (UTC)temp
C
wind
direction
speed
KPH
gust
KPH
rain 1hr
cm
rain 24hr
cm
rain mn
cm
humidity
%
barometer
mb
20260901201803 11 223 0.0 4.8 0.00 0.43 0.43 93 1003.3
20260901200924 11 223 1.6 6.4 0.00 0.43 0.43 94 1003.3
20260901200003 12 223 1.6 6.4 0.00 0.43 0.43 94 1003.3
20260901195424 12 223 3.2 6.4 0.00 0.43 0.43 94 1003.3
20260901194503 12 223 1.6 6.4 0.00 0.43 0.43 93 1003.2
20260901193603 12 223 0.0 1.6 0.00 0.43 0.43 93 1003.2
20260901192703 12 223 1.6 4.8 0.00 0.43 0.43 93 1003.2
20260901191803 12 278 4.8 9.7 0.00 0.43 0.43 94 1003.2
20260901190903 13 276 1.6 11.3 0.00 0.43 0.43 95 1003.2
20260901190003 13 292 3.2 9.7 0.00 0.43 0.43 95 1003.2
20260901185424 13 313 3.2 6.4 0.00 0.43 0.43 94 1003.2
20260901184503 13 306 4.8 11.3 0.00 0.43 0.43 94 1003.1
20260901183603 13 304 4.8 8.0 0.00 0.43 0.43 94 1003.0
20260901182724 13 304 3.2 6.4 0.00 0.43 0.43 94 1003.1
20260901181803 12 304 3.2 4.8 0.00 0.43 0.43 93 1003.1
20260901180903 12 304 0.0 4.8 0.00 0.43 0.43 91 1003.2
20260901180024 13 0 0.0 0.0 0.00 0.43 0.43 91 1003.1
20260901175403 13 0 0.0 0.0 0.00 0.43 0.43 92 1003.0
20260901174503 14 304 0.0 4.8 0.00 0.43 0.43 92 1003.1
20260901173603 14 304 3.2 6.4 0.00 0.43 0.43 92 1002.9
20260901172703 15 304 3.2 4.8 0.00 0.43 0.43 92 1002.9
20260901171803 15 306 4.8 11.3 0.00 0.43 0.43 93 1002.8
20260901170903 15 297 4.8 9.7 0.00 0.43 0.43 93 1002.8
20260901170024 15 293 6.4 12.9 0.00 0.43 0.43 93 1002.8
20260901165403 15 293 6.4 14.5 0.00 0.43 0.43 92 1002.8
20260901164503 15 288 4.8 16.1 0.05 0.43 0.43 92 1002.7
20260901163603 15 262 1.6 9.7 0.43 0.43 0.43 93 1002.6
20260901162724 16 223 0.0 1.6 0.43 0.43 0.43 94 1002.7
20260901161803 15 0 0.0 0.0 0.43 0.43 0.43 93 1002.6
20260901160903 15 223 0.0 3.2 0.43 0.43 0.43 92 1002.6
20260901160003 15 222 1.6 4.8 0.43 0.43 0.43 90 1002.6
20260901155403 15 162 6.4 17.7 0.43 0.43 0.43 88 1002.6
20260901154503 16 182 9.7 37.0 0.38 0.38 0.38 84 1002.8
20260901153603 17 159 3.2 8.0 0.00 0.00 0.00 86 1002.6
20260901152703 17 152 3.2 8.0 0.00 0.00 0.00 85 1002.5
20260901151803 17 172 3.2 8.0 0.00 0.00 0.00 85 1002.5
20260901150904 17 178 3.2 6.4 0.00 0.00 0.00 85 1002.5
20260901150025 17 178 1.6 4.8 0.00 0.00 0.00 84 1002.5
20260901145404 17 178 3.2 4.8 0.00 0.00 0.00 84 1002.6
20260901144525 18 166 3.2 9.7 0.00 0.00 0.00 83 1002.6
20260901143604 17 155 1.6 8.0 0.00 0.00 0.00 83 1002.6
20260901142704 17 160 3.2 9.7 0.00 0.00 0.00 83 1002.7
20260901141804 18 160 4.8 11.3 0.00 0.00 0.00 83 1002.8
20260901140904 17 164 6.4 12.9 0.00 0.00 0.00 84 1002.8
20260901140025 17 178 4.8 12.9 0.00 0.00 0.00 83 1002.9
20260901135404 17 176 3.2 8.0 0.00 0.00 0.00 83 1002.9
20260901134504 17 197 3.2 8.0 0.00 0.00 0.00 85 1002.8
20260901133604 17 152 1.6 4.8 0.00 0.00 0.00 83 1002.8
20260901132704 17 159 3.2 9.7 0.00 0.00 0.00 85 1002.9
20260901131804 17 168 4.8 8.0 0.00 0.00 0.00 86 1003.0
20260901130904 17 172 4.8 9.7 0.00 0.00 0.00 86 1003.1
20260901130004 17 162 4.8 11.3 0.00 0.00 0.00 86 1003.0
20260901125404 17 165 4.8 12.9 0.00 0.00 0.00 86 1003.0
20260901124505 17 165 6.4 12.9 0.00 0.00 0.00 86 1003.1
20260901123604 17 164 3.2 9.7 0.00 0.00 0.00 87 1003.1
20260901122704 16 171 4.8 8.0 0.00 0.00 0.00 87 1003.2
20260901121804 16 164 4.8 9.7 0.00 0.00 0.00 86 1003.2
20260901120925 16 192 3.2 9.7 0.00 0.00 0.00 86 1003.2
20260901120004 16 196 1.6 4.8 0.00 0.00 0.00 86 1003.2
20260901115404 16 179 1.6 11.3 0.00 0.00 0.00 86 1003.2
20260901114504 16 190 3.2 8.0 0.00 0.00 0.00 86 1003.2
20260901113604 16 199 4.8 12.9 0.00 0.00 0.00 86 1003.2
20260901112725 16 179 3.2 9.7 0.00 0.00 0.00 86 1003.2
20260901111804 16 258 3.2 9.7 0.00 0.00 0.00 84 1003.2
20260901110904 17 212 3.2 9.7 0.00 0.00 0.00 84 1003.1
20260901110004 17 206 4.8 11.3 0.00 0.00 0.00 83 1003.0
20260901105404 17 239 3.2 9.7 0.00 0.00 0.00 83 1003.0
20260901104525 17 276 3.2 9.7 0.00 0.00 0.00 84 1003.0
20260901103625 17 213 3.2 11.3 0.00 0.00 0.00 84 1003.0
20260901102725 17 228 3.2 9.7 0.00 0.00 0.00 84 1003.0
20260901101804 17 193 4.8 11.3 0.00 0.03 0.00 84 1003.0
20260901100904 17 181 3.2 11.3 0.00 0.03 0.00 84 1002.9
20260901100004 17 194 3.2 8.0 0.00 0.03 0.00 84 1002.9
20260901095404 17 178 3.2 9.7 0.00 0.03 0.00 85 1002.9
20260901094504 17 203 6.4 17.7 0.00 0.03 0.00 84 1002.8
20260901093604 17 163 4.8 12.9 0.00 0.03 0.00 85 1002.8
20260901092704 16 174 4.8 9.7 0.00 0.03 0.00 86 1002.8
20260901091804 16 198 4.8 14.5 0.00 0.03 0.00 86 1002.8
20260901090904 16 186 4.8 11.3 0.00 0.03 0.00 88 1002.7
20260901090004 16 207 4.8 12.9 0.00 0.03 0.00 89 1002.7
20260901085404 16 229 3.2 11.3 0.00 0.03 0.00 89 1002.7
20260901084504 16 200 3.2 4.8 0.00 0.03 0.00 89 1002.7
20260901083625 16 227 1.6 6.4 0.00 0.03 0.00 89 1002.7
20260901082704 16 222 1.6 8.0 0.00 0.03 0.00 90 1002.7
20260901081804 16 191 1.6 6.4 0.00 0.03 0.00 90 1002.7
20260901080904 16 179 1.6 6.4 0.00 0.03 0.00 90 1002.7
20260901080004 16 180 3.2 6.4 0.00 0.03 0.00 90 1002.6
20260901075404 16 210 3.2 11.3 0.00 0.03 0.00 90 1002.5
20260901074504 16 209 3.2 11.3 0.00 0.03 0.00 90 1002.5
20260901073625 16 216 3.2 9.7 0.00 0.03 0.00 91 1002.6
20260901072704 16 207 4.8 11.3 0.00 0.03 0.00 91 1002.6
20260901071804 16 190 3.2 6.4 0.00 0.03 0.00 92 1002.5
20260901070904 16 200 3.2 8.0 0.00 0.03 0.00 92 1002.5
20260901070025 16 197 3.2 9.7 0.00 0.03 0.00 92 1002.4
20260901065404 16 200 3.2 9.7 0.00 0.03 0.00 92 1002.4
20260901064504 15 189 1.6 4.8 0.00 0.03 0.00 93 1002.4
20260901063604 15 183 1.6 8.0 0.00 0.03 0.00 94 1002.4
20260901062704 15 206 1.6 4.8 0.00 0.03 0.00 94 1002.4
20260901061804 15 238 1.6 4.8 0.00 0.03 0.00 94 1002.4
20260901060925 15 228 1.6 8.0 0.00 0.03 0.00 95 1002.3
20260901060004 15 200 1.6 8.0 0.00 0.03 0.00 95 1002.3
20260901055404 15 188 1.6 6.4 0.00 0.03 0.00 95 1002.3
20260901054504 15 192 1.6 4.8 0.00 0.03 0.00 96 1002.3
20260901053625 15 192 0.0 4.8 0.00 0.03 0.00 96 1002.1
20260901052704 15 208 1.6 6.4 0.00 0.03 0.00 96 1002.1
20260901051804 15 186 1.6 8.0 0.00 0.03 0.00 96 1002.1
20260901050904 15 275 1.6 6.4 0.00 0.03 0.00 96 1002.0
20260901050025 15 287 1.6 8.0 0.00 0.03 0.00 96 1002.0
20260901045404 15 284 1.6 6.4 0.00 0.03 0.00 96 1002.0
20260901044506 15 204 0.0 6.4 0.00 0.03 0.00 97 1001.9
20260901043604 15 191 0.0 3.2 0.00 0.03 0.00 97 1001.8
20260901042704 15 191 1.6 6.4 0.00 0.03 0.00 97 1002.0
20260901041804 15 189 1.6 6.4 0.00 0.03 0.00 97 1002.0
20260901040904 15 199 1.6 6.4 0.00 0.03 0.00 96 1001.9
20260901040004 15 242 1.6 4.8 0.00 0.03 0.00 97 1002.0
20260901035404 15 267 0.0 3.2 0.00 0.03 0.00 96 1002.0
20260901034504 15 279 1.6 6.4 0.00 0.03 0.00 97 1002.0
20260901033604 15 283 1.6 6.4 0.00 0.03 0.00 97 1002.0
20260901032704 15 293 1.6 6.4 0.00 0.03 0.00 97 1002.0
20260901031804 15 166 1.6 6.4 0.00 0.03 0.00 97 1002.1
20260901030904 15 155 1.6 8.0 0.00 0.03 0.00 97 1002.0
20260901030004 15 155 0.0 4.8 0.00 0.03 0.00 97 1002.0
20260901025404 15 155 0.0 3.2 0.00 0.03 0.00 97 1002.0
20260901024504 15 155 1.6 3.2 0.00 0.03 0.00 96 1002.0
20260901023604 15 155 1.6 4.8 0.00 0.03 0.00 97 1001.9
20260901022704 15 155 0.0 3.2 0.00 0.03 0.00 97 1001.8
20260901021804 15 155 1.6 9.7 0.00 0.03 0.00 97 1001.8
20260901020925 15 155 0.0 4.8 0.00 0.03 0.00 96 1001.8
20260901020004 15 155 0.0 4.8 0.00 0.03 0.00 96 1001.8
20260901015404 15 155 1.6 8.0 0.00 0.03 0.00 96 1001.8
20260901014504 15 155 3.2 8.0 0.00 0.03 0.00 96 1001.8
20260901013604 15 155 1.6 4.8 0.00 0.03 0.00 96 1001.8
20260901012704 15 155 3.2 4.8 0.00 0.03 0.00 96 1001.8
20260901011804 15 155 1.6 4.8 0.00 0.03 0.00 96 1001.8
20260901010904 15 155 1.6 3.2 0.00 0.03 0.00 96 1001.8
20260901010004 15 155 1.6 4.8 0.00 0.03 0.00 96 1001.9
20260901005404 15 155 1.6 3.2 0.00 0.03 0.00 96 1001.9
20260901004504 15 155 3.2 8.0 0.00 0.03 0.00 96 1001.9
20260901003604 15 155 3.2 9.7 0.00 0.05 0.00 96 1002.0
20260901002704 15 153 3.2 9.7 0.00 0.05 0.00 96 1002.0
20260901001804 15 152 3.2 8.0 0.00 0.05 0.00 96 1002.0
20260901000904 15 151 3.2 8.0 0.00 0.05 0.00 96 1002.1
20260901000004 15 150 1.6 6.4 0.00 0.05 0.00 96 1002.1
20260831235404 15 150 1.6 3.2 0.00 0.05 0.00 96 1002.1
20260831234504 15 150 1.6 4.8 0.00 0.05 0.00 96 1002.2
20260831233604 15 150 1.6 4.8 0.00 0.05 0.00 96 1002.2
20260831232705 15 150 1.6 4.8 0.00 0.05 0.00 96 1002.1
20260831231804 15 149 0.0 1.6 0.00 0.05 0.00 96 1002.2
20260831230904 15 149 0.0 1.6 0.00 0.05 0.00 96 1002.2
20260831230004 15 143 1.6 4.8 0.00 0.05 0.00 96 1002.2
20260831225404 15 133 1.6 4.8 0.00 0.05 0.00 96 1002.2
20260831224504 15 129 1.6 4.8 0.00 0.05 0.00 96 1002.2
20260831223604 15 129 1.6 3.2 0.00 0.05 0.00 96 1002.3
20260831222704 15 129 1.6 3.2 0.00 0.05 0.00 96 1002.2
20260831221804 15 144 1.6 4.8 0.00 0.05 0.00 96 1002.3
20260831220925 15 149 1.6 4.8 0.00 0.05 0.00 96 1002.3
20260831220004 14 149 3.2 4.8 0.00 0.05 0.00 96 1002.4
20260831215425 14 149 1.6 3.2 0.00 0.05 0.00 95 1002.4
20260831214504 14 149 1.6 3.2 0.00 0.05 0.00 95 1002.3
20260831213604 15 149 1.6 3.2 0.00 0.05 0.00 95 1002.3
20260831212704 15 149 0.0 3.2 0.00 0.05 0.00 95 1002.3
20260831211804 15 149 1.6 3.2 0.00 0.05 0.00 95 1002.3
20260831210904 15 149 1.6 3.2 0.00 0.05 0.00 95 1002.3
20260831210026 15 149 1.6 3.2 0.00 0.05 0.00 95 1002.4
20260831205404 15 149 1.6 4.8 0.00 0.05 0.05 95 1002.4
20260831204504 15 128 3.2 8.0 0.00 0.05 0.05 96 1002.4
20260831203604 15 135 3.2 6.4 0.00 0.05 0.05 96 1002.5
20260831202704 15 152 3.2 8.0 0.00 0.05 0.05 96 1002.4